Location: Cheyres
(46.8153°N, 6.7877°E)
Time: 12:52:30
(UTC+00:00)

NOSS 3-3 (C) - Pass Details

Date: 11 May 2021
Orbit: 806 x 1406 km, 63.4° (Epoch: 14 June)

Event Time Altitude Azimuth Distance (km) Brightness Sun altitude
Rises 19:30:42 0° 191° (S) 3,352 6.6 -5.9°
Reaches altitude 10° 19:33:10 10° 184° (S) 2,463 5.8 -6.2°
Maximum altitude 19:38:23 39° 116° (ESE) 1,328 4.3 -6.9°
Drops below altitude 10° 19:44:14 10° 50° (NE) 2,769 6.3 -7.8°
Sets 19:47:09 0° 43° (NE) 3,820 7.0 -8.1°
